Location: New York
(40.7140°N, 74.0060°W)
Time: 06:52:55
(UTC-04:00)

ISS - Visible Passes

Search period start: 24 July 2017 00:00
Search period end: 03 August 2017 00:00
Orbit: 400 x 408 km, 51.6° (Epoch: 24 July)

Date Brightness Start Highest point End Pass type
(mag) Time Alt. Az. Time Alt. Az. Time Alt. Az.
24 Jul -0.4 01:13:55 10° NNW 01:15:21 12° N 01:16:48 10° NNE visible
24 Jul -1.3 02:50:02 10° NNW 02:52:43 23° NNE 02:55:26 10° ENE visible
24 Jul -3.8 04:26:11 10° WNW 04:29:24 55° SW 04:32:35 10° SE visible
24 Jul -3.7 21:05:35 10° SW 21:08:44 50° SE 21:11:54 10° ENE visible
24 Jul -1.4 22:42:38 10° W 22:45:22 24° NNW 22:48:06 10° NNE visible
25 Jul -0.4 00:21:16 10° NNW 00:22:43 12° N 00:24:10 10° NNE visible
25 Jul -0.9 01:57:55 10° NNW 02:00:12 17° NNE 02:02:29 10° ENE visible
25 Jul -3.7 03:33:51 10° NW 03:37:07 75° NE 03:40:22 10° ESE visible
25 Jul -1.8 05:11:57 10° WSW 05:13:10 12° SW 05:14:22 10° SSW visible
25 Jul -2.2 21:49:51 10° W 21:52:54 37° NNW 21:55:58 10° NE visible
25 Jul -0.5 23:28:20 10° NW 23:30:05 14° N 23:31:50 10° NNE visible
26 Jul -0.5 01:05:46 10° NNW 01:06:56 13° N 01:06:56 13° N visible
26 Jul -3.4 20:57:17 10° WSW 21:00:31 65° NW 21:03:44 10° NE visible
26 Jul -0.7 22:35:18 10° WNW 22:37:28 16° NNW 22:39:39 10° NNE visible
27 Jul -0.5 00:13:28 10° NNW 00:14:58 13° N 00:15:43 12° NNE visible
27 Jul -1.1 21:42:18 10° WNW 21:44:54 22° NNW 21:47:30 10° NNE visible
27 Jul -0.6 23:20:53 10° NNW 23:22:18 12° N 23:23:42 10° NNE visible
28 Jul -0.3 00:57:20 10° NNW 00:57:23 10° NNW 00:57:23 10° NNW visible
28 Jul -1.8 20:49:26 10° W 20:52:23 31° NNW 20:55:20 10° NE visible
28 Jul -0.7 22:28:00 10° NW 22:29:37 13° N 22:31:15 10° NNE visible
29 Jul -0.6 00:05:09 10° NNW 00:06:32 14° N 00:06:32 14° N visible
29 Jul -0.8 21:34:56 10° NW 21:36:58 15° NNW 21:38:59 10° NNE visible
29 Jul -0.8 23:12:52 10° NNW 23:14:28 13° N 23:15:44 11° NNE visible
30 Jul -1.1 20:41:52 10° WNW 20:44:19 19° NNW 20:46:47 10° NNE visible
30 Jul -0.7 22:20:22 10° NNW 22:21:46 12° N 22:23:10 10° NNE visible
30 Jul -0.7 23:56:36 10° NNW 23:57:35 15° NNW 23:57:35 15° NNW visible
31 Jul -0.8 21:27:32 10° NNW 21:29:03 13° N 21:30:34 10° NNE visible
31 Jul -1.2 23:04:25 10° NNW 23:06:33 16° NNE 23:06:49 16° NNE visible
01 Aug -1.0 22:12:08 10° NNW 22:13:51 13° N 22:15:35 10° NE visible
01 Aug -0.7 23:48:01 10° NW 23:48:42 15° NW 23:48:42 15° NW visible
02 Aug -0.9 21:19:40 10° NNW 21:21:07 12° N 21:22:33 10° NNE visible
02 Aug -1.6 22:55:47 10° NNW 22:57:59 22° N 22:57:59 22° N visible
